Date String (YYYY-MM-DD hh:mm:ss) UTC,Instrument flags,Ambient pressure (hPa),Sample flow (lpm),Bypass flow (lpm),Sample temperature (°C),Ambient temperature (°C),ASC tube jacket temperature (°C),LED temperature (°C),Box temperature (°C),Sample RH (%),Span deviation,Mass concentration (μg/m³),Mass concentration (μg/m³),Mass concentration (μg/m³)
DateTimeUTC,F1_M11,P_M11,Q1_M11,Q2_M11,T1_M11,T2_M11,T3_M11,T4_M11,T5_M11,U1_M11,ZSPAN_M11,X0_M11,X2_M11,X1_M11
2021-09-26 07:00:00,,0825.6,5.00,0.00,29.7,27.6,00.0,38.9,31.3,09.4,0004.0,0011.28,0007.21,0006.59
2021-09-26 07:01:00,,0825.6,5.00,0.00,29.7,27.9,00.0,38.9,31.3,09.4,0003.6,0011.22,0007.16,0006.53
2021-09-26 07:02:00,,0825.6,5.00,0.00,29.7,28.1,00.0,38.9,31.4,09.3,0002.9,0011.32,0007.10,0006.48
2021-09-26 07:03:00,,0825.6,5.01,0.00,29.7,28.2,00.0,38.9,31.4,09.4,0003.1,0011.78,0007.07,0006.46
2021-09-26 07:04:00,,0825.6,4.99,0.00,29.8,28.4,00.0,38.9,31.5,09.5,0002.9,0011.74,0007.03,0006.44
2021-09-26 07:05:00,,0825.6,5.00,0.00,29.8,28.5,00.0,38.9,31.5,09.4,0002.6,0011.69,0007.00,0006.42
2021-09-26 07:06:00,,0825.6,5.01,0.00,29.8,28.6,00.0,38.9,31.5,09.4,0002.5,0011.66,0006.97,0006.39
2021-09-26 07:07:00,,0825.6,4.99,0.00,29.8,28.6,00.0,38.9,31.6,09.3,0002.7,0011.73,0006.96,0006.38
2021-09-26 07:08:00,,0825.7,5.00,0.00,29.9,28.7,00.0,38.9,31.6,09.4,0002.5,0011.85,0006.96,0006.37
2021-09-26 07:09:00,,0825.7,5.01,0.00,29.9,28.8,00.0,38.9,31.6,09.4,0002.6,0011.74,0006.94,0006.36
2021-09-26 07:10:00,,0825.7,5.01,0.00,29.9,28.8,00.0,38.9,31.7,09.5,0002.6,0012.11,0006.94,0006.37
2021-09-26 07:11:00,,0825.8,4.99,0.00,29.9,28.9,00.0,38.9,31.7,09.8,0002.5,0012.64,0006.94,0006.38
2021-09-26 07:12:00,,0825.7,5.00,0.00,29.9,28.9,00.0,39.0,31.7,10.4,0002.4,0013.65,0006.97,0006.44
2021-09-26 07:13:00,,0825.7,5.01,0.00,30.0,29.0,00.0,39.0,31.7,10.6,0002.5,0014.22,0007.06,0006.50
2021-09-26 07:14:00,,0825.7,5.00,0.00,30.0,29.0,00.0,39.0,31.8,10.3,0002.7,0014.31,0007.14,0006.55
2021-09-26 07:15:00,,0825.7,5.01,0.00,30.0,29.1,00.0,39.0,31.8,10.2,0003.1,0015.04,0007.19,0006.58
2021-09-26 07:16:00,,0825.7,4.99,0.00,30.0,29.1,00.0,39.0,31.8,10.0,0003.0,0015.18,0007.26,0006.61
2021-09-26 07:17:00,,0825.7,5.01,0.00,30.0,29.1,00.0,39.0,31.8,09.9,0002.6,0015.28,0007.31,0006.63
2021-09-26 07:18:00,,0825.7,5.00,0.00,30.1,29.2,00.0,39.0,31.8,09.8,0002.2,0015.39,0007.31,0006.64
2021-09-26 07:19:00,,0825.7,5.01,0.00,30.1,29.2,00.0,39.1,31.9,09.8,0002.5,0015.36,0007.30,0006.65
2021-09-26 07:20:00,,0825.6,5.00,0.00,30.1,29.2,00.0,39.1,31.9,09.3,0002.6,0015.31,0007.32,0006.67
2021-09-26 07:21:00,,0825.7,5.00,0.00,30.1,29.2,00.0,39.1,31.9,09.2,0002.1,0015.61,0007.33,0006.68
2021-09-26 07:22:00,,0825.7,5.01,0.00,30.2,29.3,00.0,39.1,31.9,09.5,0002.1,0015.03,0007.32,0006.67
2021-09-26 07:23:00,,0825.7,4.99,0.00,30.2,29.3,00.0,39.1,32.0,09.6,0002.4,0014.34,0007.34,0006.65
2021-09-26 07:24:00,,0825.7,4.99,0.00,30.2,29.3,00.0,39.2,32.0,09.6,0002.4,0013.54,0007.27,0006.62
2021-09-26 07:25:00,,0825.7,5.00,0.00,30.2,29.3,00.0,39.2,32.0,09.4,0002.2,0013.09,0007.18,0006.56
2021-09-26 07:26:00,,0825.7,5.01,0.00,30.2,29.0,00.0,39.2,31.9,09.4,0002.2,0012.14,0007.11,0006.48
2021-09-26 07:27:00,,0825.7,4.98,0.00,30.1,27.0,00.0,39.2,31.4,09.4,0002.2,0011.96,0007.01,0006.42
2021-09-26 07:28:00,,0825.7,5.00,0.00,29.9,26.3,00.0,39.1,31.2,09.4,0001.9,0011.82,0006.92,0006.35
2021-09-26 07:29:00,,0825.6,5.00,0.00,29.8,26.6,00.0,39.1,31.2,09.5,0002.0,0011.61,0006.89,0006.30
2021-09-26 07:30:00,,0825.6,5.02,0.00,29.7,27.0,00.0,39.0,31.2,09.6,0002.1,0011.52,0006.87,0006.26
2021-09-26 07:31:00,,0825.6,5.00,0.00,29.7,27.4,00.0,39.0,31.3,09.5,0002.1,0011.44,0006.81,0006.23
2021-09-26 07:32:00,,0825.7,4.99,0.00,29.7,27.7,00.0,39.0,31.3,09.6,0002.5,0010.70,0006.79,0006.19
2021-09-26 07:33:00,,0825.7,5.01,0.00,29.7,27.9,00.0,39.0,31.4,09.6,0002.5,0010.71,0006.76,0006.15
2021-09-26 07:34:00,,0825.7,4.99,0.00,29.8,28.2,00.0,39.0,31.4,09.7,0002.5,0010.39,0006.66,0006.09
2021-09-26 07:35:00,,0825.7,5.00,0.00,29.8,28.3,00.0,39.0,31.5,09.7,0002.6,0010.31,0006.66,0006.05
2021-09-26 07:36:00,,0825.7,4.99,0.00,29.8,28.5,00.0,39.0,31.5,09.7,0002.2,0010.41,0006.69,0006.04
2021-09-26 07:37:00,,0825.7,5.01,0.00,29.8,28.6,00.0,39.0,31.6,09.8,0001.8,0010.32,0006.68,0006.05
2021-09-26 07:38:00,,0826.2,5.01,0.00,29.9,28.7,00.0,39.0,31.6,10.0,0001.9,0010.39,0006.71,0006.07
2021-09-26 07:39:00,,0825.7,4.99,0.00,29.9,28.8,00.0,39.0,31.7,10.0,0002.4,0010.56,0006.76,0006.10
2021-09-26 07:40:00,,0825.9,5.01,0.00,29.9,28.9,00.0,39.0,31.7,10.0,0002.8,0010.58,0006.78,0006.14
2021-09-26 07:41:00,,0825.8,4.99,0.00,29.9,28.9,00.0,39.0,31.7,10.0,0002.7,0010.53,0006.77,0006.15
2021-09-26 07:42:00,,0825.7,4.99,0.00,29.9,29.0,00.0,39.0,31.8,10.0,0002.4,0010.83,0006.79,0006.14
2021-09-26 07:43:00,,0826.1,5.01,0.00,30.0,29.0,00.0,39.0,31.8,10.0,0002.0,0010.76,0006.81,0006.17
2021-09-26 07:44:00,,0825.9,4.99,0.00,30.0,29.1,00.0,39.0,31.8,10.0,0002.1,0010.84,0006.88,0006.23
2021-09-26 07:45:00,,0826.1,4.99,0.00,30.0,29.1,00.0,39.0,31.8,10.0,0002.2,0011.82,0006.99,0006.31
2021-09-26 07:46:00,,0825.8,5.01,0.00,30.0,29.1,00.0,39.1,31.8,09.9,0002.4,0012.00,0007.05,0006.38
2021-09-26 07:47:00,,0825.7,4.99,0.00,30.1,29.2,00.0,39.1,31.9,09.9,0002.9,0011.96,0007.05,0006.42
2021-09-26 07:48:00,,0826.2,5.01,0.00,30.1,29.2,00.0,39.1,31.9,10.0,0002.8,0012.17,0007.13,0006.47
2021-09-26 07:49:00,,0826.2,4.99,0.00,30.1,29.2,00.0,39.1,31.9,10.0,0002.8,0012.56,0007.26,0006.53
2021-09-26 07:50:00,,0826.0,5.02,0.00,30.1,29.2,00.0,39.1,31.9,09.9,0003.0,0012.67,0007.35,0006.58
2021-09-26 07:51:00,,0825.9,4.98,0.00,30.2,29.3,00.0,39.1,31.9,09.9,0002.7,0012.81,0007.44,0006.63
2021-09-26 07:52:00,,0825.7,5.00,0.00,30.2,29.3,00.0,39.2,32.0,09.7,0003.1,0013.12,0007.49,0006.68
2021-09-26 07:53:00,,0825.7,5.01,0.00,30.2,29.3,00.0,39.2,32.0,09.6,0003.2,0012.94,0007.48,0006.69
2021-09-26 07:54:00,,0825.7,4.99,0.00,30.2,29.4,00.0,39.2,32.0,09.8,0003.4,0013.03,0007.50,0006.69
2021-09-26 07:55:00,,0825.7,5.01,0.00,30.2,29.4,00.0,39.2,32.0,09.9,0003.1,0013.35,0007.48,0006.68
2021-09-26 07:56:00,,0825.7,5.00,0.00,30.3,29.4,00.0,39.2,32.0,09.8,0003.2,0012.60,0007.48,0006.68
2021-09-26 07:57:00,,0825.8,5.01,0.00,30.3,29.0,00.0,39.2,31.9,09.8,0003.1,0012.74,0007.47,0006.67
2021-09-26 07:58:00,,0825.7,4.99,0.00,30.1,27.0,00.0,39.2,31.4,09.8,0002.8,0012.71,0007.47,0006.65
2021-09-26 07:59:00,,0825.7,5.00,0.00,30.0,26.4,00.0,39.2,31.2,09.7,0002.8,0012.59,0007.41,0006.60
